Lafayette, CO

1:02 PM MST on January 24, 2017 (GMT -0700)
Erie Municipal Airport

Weather History for KEIK - April, 2012

Change the Weather History Date:

Monday, April 23, 2012

  Actual Average (KBJC) Record (KBJC)
Temperature  
Mean Temperature 58 °F -  
Max Temperature 80 °F 57 °F 80 °F (2012)
Min Temperature 37 °F 36 °F 19 °F (2013)
Degree Days  
Heating Degree Days 6    
Growing Degree Days 8 (Base 50)    
Moisture  
Dew Point 33 °F    
Average Humidity 44    
Maximum Humidity 93    
Minimum Humidity 13    
Precipitation  
Precipitation 0.00 in - - ()
Sea Level Pressure  
Sea Level Pressure 30.12 in    
Wind  
Wind Speed 2 mph (SE)    
Max Wind Speed 8 mph    
Max Gust Speed -    
Visibility 10 miles    
Events      
Averages and records for this station are not official NWS values.
T = Trace of Precipitation, MM = Missing Value Source: NWS Daily Summary

Daily Weather History Graph

Daily Weather History Graph

Search for Another Location

Airport or City:

Trip Planner

Search our weather history database for the weather conditions in past years. The results will help you decide how hot, cold, wet, or windy it might be!

Date:

Astronomy

Apr. 23, 2012 Rise Set
Actual Time 6:10 AM MDT 7:47 PM MDT
Civil Twilight 5:41 AM MDT 8:16 PM MDT
Nautical Twilight 5:06 AM MDT 8:50 PM MDT
Astronomical Twilight 4:29 AM MDT 9:27 PM MDT
Moon 7:22 AM MDT (4/23) 10:19 PM MDT (4/23)
Length of Visible Light 14h 34m
Length of Day
13h 37m
Waxing Crescent, 5% of the Moon is Illuminated
Apr 23
Waxing Crescent
Apr 29
First Quarter
May 5
Full
May 12
Last Quarter
May 20
New

Hourly Weather History & Observations

Time (MDT) Temp. Windchill Dew Point Humidity Pressure Visibility Wind Dir Wind Speed Gust Speed Precip Events Conditions
12:12 AM 50.0 °F - 37.4 °F 62% 30.21 in 10.0 mi Calm Calm - N/A   Clear
12:32 AM 46.4 °F - 37.4 °F 71% 30.22 in 10.0 mi Calm Calm - N/A   Clear
12:52 AM 44.6 °F - 35.6 °F 71% 30.21 in 10.0 mi Calm Calm - N/A   Clear
1:12 AM 44.6 °F - 37.4 °F 76% 30.22 in 10.0 mi Calm Calm - N/A   Clear
2:12 AM 42.8 °F - 35.6 °F 76% 30.20 in 10.0 mi Calm Calm - N/A   Clear
3:12 AM 42.8 °F - 35.6 °F 76% 30.19 in 10.0 mi Calm Calm - N/A   Clear
3:32 AM 41.0 °F - 35.6 °F 81% 30.19 in 10.0 mi Calm Calm - N/A   Clear
3:52 AM 41.0 °F 39.0 °F 35.6 °F 81% 30.19 in 10.0 mi SW 3.5 mph - N/A   Clear
4:12 AM 37.4 °F - 35.6 °F 93% 30.19 in 10.0 mi Calm Calm - N/A   Clear
4:52 AM 41.0 °F - 35.6 °F 81% 30.19 in 10.0 mi Calm Calm - N/A   Clear
5:12 AM 37.4 °F - 35.6 °F 93% 30.18 in 10.0 mi Calm Calm - N/A   Clear
5:32 AM 37.4 °F - 33.8 °F 87% 30.19 in 10.0 mi Calm Calm - N/A   Clear
5:52 AM 37.4 °F - 33.8 °F 87% 30.19 in 10.0 mi Calm Calm - N/A   Clear
6:12 AM 37.4 °F 34.9 °F 33.8 °F 87% 30.19 in 10.0 mi SSW 3.5 mph - N/A   Clear
6:32 AM 37.4 °F 32.8 °F 33.8 °F 87% 30.19 in 10.0 mi SSW 5.8 mph - N/A   Clear
6:52 AM 41.0 °F 39.0 °F 35.6 °F 81% 30.19 in 10.0 mi SSW 3.5 mph - N/A   Clear
7:12 AM 44.6 °F 43.1 °F 37.4 °F 76% 30.20 in 10.0 mi South 3.5 mph - N/A   Clear
7:32 AM 46.4 °F - 37.4 °F 71% 30.20 in 10.0 mi Calm Calm - N/A   Clear
7:52 AM 50.0 °F - 41.0 °F 71% 30.20 in 10.0 mi Calm Calm - N/A   Clear
8:12 AM 55.4 °F - 41.0 °F 58% 30.20 in 10.0 mi Calm Calm - N/A   Clear
8:32 AM 57.2 °F - 39.2 °F 51% 30.20 in 10.0 mi Calm Calm - N/A   Clear
8:52 AM 59.0 °F - 37.4 °F 45% 30.20 in 10.0 mi Calm Calm - N/A   Clear
9:12 AM 60.8 °F - 37.4 °F 42% 30.19 in 10.0 mi Calm Calm - N/A   Clear
9:32 AM 64.4 °F - 35.6 °F 34% 30.18 in 10.0 mi Calm Calm - N/A   Clear
9:52 AM 64.4 °F - 33.8 °F 32% 30.18 in 10.0 mi Calm Calm - N/A   Clear
10:12 AM 68.0 °F - 33.8 °F 28% 30.18 in 10.0 mi Calm Calm - N/A   Clear
10:32 AM 68.0 °F - 32.0 °F 26% 30.17 in 10.0 mi Calm Calm - N/A   Clear
10:52 AM 71.6 °F - 33.8 °F 25% 30.17 in 10.0 mi ENE 5.8 mph - N/A   Clear
11:12 AM 71.6 °F - 32.0 °F 23% 30.17 in 10.0 mi Calm Calm - N/A   Clear
11:32 AM 73.4 °F - 32.0 °F 22% 30.16 in 10.0 mi East 6.9 mph - N/A   Clear
11:52 AM 75.2 °F - 32.0 °F 21% 30.15 in 10.0 mi SE 8.1 mph - N/A   Clear
12:12 PM 77.0 °F - 32.0 °F 19% 30.14 in 10.0 mi ESE 6.9 mph - N/A   Clear
12:32 PM 77.0 °F - 26.6 °F 16% 30.13 in 10.0 mi ESE 3.5 mph - N/A   Clear
12:52 PM 78.8 °F - 28.4 °F 16% 30.12 in 10.0 mi ESE 3.5 mph - N/A   Clear
1:12 PM 78.8 °F - 26.6 °F 15% 30.11 in 10.0 mi ESE 5.8 mph - N/A   Clear
1:32 PM 78.8 °F - 26.6 °F 15% 30.10 in 10.0 mi ENE 8.1 mph - N/A   Clear
1:52 PM 78.8 °F - 26.6 °F 15% 30.09 in 10.0 mi East 8.1 mph - N/A   Clear
2:12 PM 78.8 °F - 24.8 °F 14% 30.09 in 10.0 mi Calm Calm - N/A   Clear
2:32 PM 80.6 °F - 26.6 °F 14% 30.08 in 10.0 mi Calm Calm - N/A   Clear
2:52 PM 80.6 °F - 24.8 °F 13% 30.08 in 10.0 mi Calm Calm - N/A   Clear
3:12 PM 80.6 °F - 28.4 °F 15% 30.07 in 10.0 mi ESE 8.1 mph - N/A   Clear
3:32 PM 80.6 °F - 26.6 °F 14% 30.06 in 10.0 mi ESE 5.8 mph - N/A   Clear
3:48 PM 80.6 °F - 26.6 °F 14% 30.05 in 10.0 mi NNE 6.9 mph - N/A   Clear
4:32 PM 80.6 °F - 26.6 °F 14% 30.04 in 10.0 mi ESE 4.6 mph - N/A   Clear
4:52 PM 80.6 °F - 26.6 °F 14% 30.04 in 10.0 mi NNE 5.8 mph - N/A   Clear
5:12 PM 80.6 °F - 26.6 °F 14% 30.03 in 10.0 mi ENE 6.9 mph - N/A   Clear
5:32 PM 80.6 °F - 26.6 °F 14% 30.03 in 10.0 mi ESE 3.5 mph - N/A   Clear
5:52 PM 78.8 °F - 23.0 °F 13% 30.03 in 10.0 mi Calm Calm - N/A   Clear
6:12 PM 77.0 °F - 24.8 °F 14% 30.04 in 10.0 mi Calm Calm - N/A   Clear
6:32 PM 73.4 °F - 37.4 °F 27% 30.03 in 10.0 mi Calm Calm - N/A   Scattered Clouds
6:52 PM 77.0 °F - 30.2 °F 18% 30.03 in 10.0 mi Calm Calm - N/A   Scattered Clouds
7:12 PM 73.4 °F - 37.4 °F 27% 30.02 in 10.0 mi Calm Calm - N/A   Clear
7:32 PM 71.6 °F - 37.4 °F 29% 30.02 in 10.0 mi Calm Calm - N/A   Clear
7:52 PM 66.2 °F - 42.8 °F 43% 30.02 in 10.0 mi Calm Calm - N/A   Clear
8:12 PM 62.6 °F - 41.0 °F 45% 30.02 in 10.0 mi Calm Calm - N/A   Clear
8:32 PM 60.8 °F - 39.2 °F 45% 30.03 in 10.0 mi Calm Calm - N/A   Clear
8:52 PM 59.0 °F - 37.4 °F 45% 30.03 in 10.0 mi SSW 4.6 mph - N/A   Clear
9:12 PM 60.8 °F - 35.6 °F 39% 30.03 in 10.0 mi SSW 5.8 mph - N/A   Clear
9:32 PM 59.0 °F - 35.6 °F 42% 30.04 in 10.0 mi SSW 4.6 mph - N/A   Clear
9:52 PM 55.4 °F - 35.6 °F 47% 30.03 in 10.0 mi Calm Calm - N/A   Clear
10:12 PM 57.2 °F - 33.8 °F 41% 30.03 in 10.0 mi SSW 3.5 mph - N/A   Clear
10:32 PM 55.4 °F - 33.8 °F 44% 30.02 in 10.0 mi South 4.6 mph - N/A   Clear
10:52 PM 51.8 °F - 35.6 °F 54% 30.02 in 10.0 mi Calm Calm - N/A   Clear
11:12 PM 50.0 °F - 35.6 °F 58% 30.01 in 10.0 mi Calm Calm - N/A   Clear
11:52 PM 50.0 °F - 37.4 °F 62% 30.00 in 10.0 mi Calm Calm - N/A   Clear